Regional Weather Roundup
Issued by NWS

Home | Current Version | Previous Version | Graphics & Text | Print | Product List | Glossary On
Versions: 1 2 3 4 5 6 7 8 9 10 11 12 13 14 15 16 17 18 19 20 21 22 23 24 25 26 27 28 29 30 31 32 33 34 35 36 37 38 39 40 41 42 43 44 45 46 47 48 49 50
000
ASUS43 KFSD 290002
RWRSD

WEATHER ROUNDUP FOR SOUTH DAKOTA
NATIONAL WEATHER SERVICE SIOUX FALLS SD
700 PM CDT TUE JUL 28 2015

NOTE: "FAIR" INDICATES FEW OR NO CLOUDS BELOW 12,000 FEET WITH NO
SIGNIFICANT WEATHER AND/OR OBSTRUCTIONS TO VISIBILITY.


SDZ001>005-009-010-012>017-290100-
NORTHWEST AND NORTH CENTRAL SOUTH DAKOTA

CITY           SKY/WX    TMP DP  RH WIND       PRES   REMARKS
BUFFALO          N/A     72  36  26 W40G51    29.97S
FAITH            N/A     73  41  31 NW28G40   30.01R
MOBRIDGE       PTSUNNY   75  49  39 W22G37    29.90R
$$

SDZ012>016-024>037-041>051-057-063-072>074-290100-
SOUTHWEST AND SOUTH CENTRAL SOUTH DAKOTA

CITY           SKY/WX    TMP DP  RH WIND       PRES   REMARKS
RAPID CTY ARPT SUNNY     76  42  29 NW18G24   30.07R
PIERRE         SUNNY     80  45  28 NW30G38   29.97R
CUSTER         SUNNY     65  35  33 W13G21    30.19R
ELLSWORTH AFB  SUNNY     75  42  30 NW17      30.06R
PHILIP         SUNNY     78  45  30 NW22G31   30.01R
PINE RIDGE     SUNNY     78  34  20 NW16G23   30.07S
WINNER         FAIR      82  47  29 NW14      30.00R
$$

SDZ004>011-016>023-039-040-290100-
NORTHEAST SOUTH DAKOTA

CITY           SKY/WX    TMP DP  RH WIND       PRES   REMARKS
ABERDEEN       SUNNY     78  49  35 W23G29    29.87R
WATERTOWN      SUNNY     77  53  43 W20G25    29.90R
SISSETON         N/A     78  51  38 W23G32    29.83R
$$

SDZ017-020-022-023-036>040-048>070-290100-
SOUTHEAST SOUTH DAKOTA

CITY           SKY/WX    TMP DP  RH WIND       PRES   REMARKS
SIOUX FALLS    MOSUNNY   78  57  48 W8        29.94R
HURON          SUNNY     79  53  40 W16       29.91R
CHAMBERLAIN    SUNNY     80  47  31 W18       29.97S
$$

ABBREVIATIONS USED IN REMARKS
   TC - TEMPERATURE IN CELSIUS
  WCI - WIND CHILL INDEX
   HX - HEAT INDEX
  VSB - VISIBILITY




USA.gov is the U.S. government's official web portal to all federal, state and local government web resources and services.